Hourly Data Report for October 21, 2016

All times are specified in Local Standard Time (LST). Add 1 hour to adjust for Daylight Saving Time where and when it is observed.

KUGAARUK CLIMATE
NUNAVUT

68°32'15.060" N
89°47'47.020" W
15.80 m
2303094
71407
NBB

Download Data

Hourly Data (October 2016)
Hourly Data Report for October 21, 2016
Temp Definition
°C
Dew Point Temp Definition
°C
Rel Hum Definition
%
Wind Dir Definition
10's deg

Wind Spd Definition
km/h
Visibility Definition
km
Stn Press Definition
kPa
Hmdx Definition


Wind Chill Definition


Weather Definition


TIME
00:00 -10.6 -12.5 86 29 9   101.56   -16 LegendNANA
01:00 -11.9 -13.9 85 29 13   101.59   -19 LegendNANA
02:00 -13.1 -14.9 86 21 4   101.63   -16 LegendNANA
03:00 -12.3 -13.7 89 27 13   101.67   -19 LegendNANA
04:00 -11.8 -13.3 89 29 4   101.70   -14 LegendNANA
05:00 -11.2 -12.8 88 31 6   101.73   -15 LegendNANA
06:00 -11.0 -12.9 86 33 9   101.75   -16 LegendNANA
07:00 -11.3 -13.2 86 31 6   101.81   -15 LegendNANA
08:00 -11.3 -12.9 88 20 10   101.83   -17 LegendNANA
09:00 -11.1 -13.2 85 23 7   101.84   -15 LegendNANA
10:00 -10.9 -13.3 83 23 12   101.89   -17 LegendNANA
11:00 -11.1 -13.3 84 23 16   101.92   -18 LegendNANA
12:00 -11.3 -13.5 84 23 17   101.96   -19 LegendNANA
13:00 -11.7 -13.7 85 24 18   102.01   -20 LegendNANA
14:00 -12.3 -14.1 86 25 17   102.07   -20 LegendNANA
15:00 -12.5 -14.3 87 25 18   102.11   -21 LegendNANA
16:00 -12.6 -14.3 87 24 19   102.16   -21 LegendNANA
17:00 -12.5 -14.3 86 24 18   102.20   -21 LegendNANA
18:00 -12.5 -14.3 86 25 15   102.23   -20 LegendNANA
19:00 -12.5 -14.4 86 25 13   102.25   -19 LegendNANA
20:00 -12.6 -14.4 86 26 15   102.31   -20 LegendNANA
21:00 -12.5 -14.4 86 25 14   102.34   -20 LegendNANA
22:00 -12.4 -14.3 86 25 10   102.38   -18 LegendNANA
23:00 -12.2 -14.1 86 25 11   102.41   -18 LegendNANA

Notes on Data Quality.

Legend

  • E = Estimated
  • M = Missing
  • NA = Not Available
  • ‡ = Partner data that is not subject to review by the National Climate Archives
Date modified: